Location: Unspecified
(40.7945°N, 0.0000°E)
Time: 10:41:01
(UTC+00:00)

Courier 1B - Pass Details

Date: 21 January 2021
Orbit: 962 x 1209 km, 28.3° (Epoch: 26 February)

Event Time Altitude Azimuth Distance (km) Brightness Sun altitude
Rises 01:33:47 0° 238° (WSW) 3,644 - -62.7°
Reaches altitude 10° 01:36:53 10° 225° (SW) 2,687 - -62.3°
Maximum altitude 01:42:00 25° 172° (S) 1,821 - -61.5°
Drops below altitude 10° 01:47:10 10° 120° (ESE) 2,709 - -60.8°
Sets 01:50:19 0° 107° (ESE) 3,680 - -60.3°
